Location: IoMAS Observatory
(54.1780°N, 4.6265°W)
Time: 02:15:38
(UTC+02:00)

ISS - Visible Passes

Search period start: 21 October 2019 00:00
Search period end: 30 October 2019 23:00
Orbit: 411 x 421 km, 51.6° (Epoch: 21 October)

Date Brightness Start Highest point End Pass type
(mag) Time Alt. Az. Time Alt. Az. Time Alt. Az.
24 Oct -0.7 08:25:00 10° S 08:26:43 13° SE 08:28:27 10° ESE visible
26 Oct -1.5 08:23:07 10° SSW 08:25:52 23° SSE 08:28:37 10° E visible
27 Oct -1.2 06:35:05 10° S 06:37:25 18° SSE 06:39:46 10° ESE visible
28 Oct -0.9 05:47:33 10° SSE 05:49:01 13° SE 05:50:35 10° ESE visible
28 Oct -2.4 07:21:57 10° SW 07:25:05 37° SSE 07:28:14 10° E visible
29 Oct -2.1 06:34:09 14° SSW 06:36:33 29° SSE 06:39:33 10° E visible
30 Oct -1.8 05:47:44 22° SSE 05:48:04 22° SSE 05:50:46 10° E visible
30 Oct -3.0 07:21:04 10° WSW 07:24:21 50° S 07:27:38 10° E visible
